UZB785 OOMS-OEMA

Flight info

Callsign UZB785
Flight time 2h 46m
Altitude 38000
Route DCT MCT T506 TULBU G652 TOKRA DCT MEDPO DCT BOSOB DCT ITRUX Y511 ELONU ELONU1E
Aircraft B77W/H-SDE1E2E3FGHIJ2J3J4J5M1RWXY/LB1D1

Departure

Time 2026-04-25 14:10
Airport Muscat International Airport (OOMS)

Arrival

Time 2026-04-25 16:56
Airport Prince Mohammad Bin Abdulaziz Airport (OEMA)
Time Latitude Longitude Altitude Speed Heading
2026-04-25 13:50 23.59890 58.28626 49 ft 0 kts 85°
2026-04-25 13:55 23.59888 58.28604 48 ft 4 kts 85°
2026-04-25 13:55 23.59886 58.28574 44 ft 4 kts 85°
2026-04-25 13:55 23.59884 58.28545 44 ft 4 kts 84°
2026-04-25 13:56 23.59881 58.28516 44 ft 4 kts 84°
2026-04-25 13:56 23.59879 58.28487 44 ft 4 kts 84°
2026-04-25 13:56 23.59877 58.28457 43 ft 4 kts 84°
2026-04-25 13:56 23.59874 58.28428 44 ft 4 kts 84°
2026-04-25 13:57 23.59871 58.28399 44 ft 4 kts 84°
2026-04-25 13:57 23.59870 58.28388 44 ft 1 kts 84°
2026-04-25 13:57 23.59870 58.28384 44 ft 0 kts 84°
2026-04-25 14:00 23.59873 58.28411 44 ft 5 kts 84°
2026-04-25 14:01 23.59875 58.28448 44 ft 5 kts 90°
2026-04-25 14:01 23.59861 58.28480 49 ft 5 kts 132°
2026-04-25 14:01 23.59831 58.28496 49 ft 5 kts 165°
2026-04-25 14:01 23.59799 58.28503 49 ft 5 kts 168°
2026-04-25 14:02 23.59765 58.28508 49 ft 5 kts 174°
2026-04-25 14:02 23.59732 58.28511 49 ft 5 kts 175°
2026-04-25 14:02 23.59687 58.28515 49 ft 11 kts 175°
2026-04-25 14:02 23.59662 58.28518 49 ft 11 kts 175°
2026-04-25 14:03 23.59562 58.28524 49 ft 11 kts 187°
2026-04-25 14:03 23.59519 58.28460 49 ft 12 kts 261°
2026-04-25 14:03 23.59510 58.28356 49 ft 15 kts 265°
2026-04-25 14:03 23.59499 58.28231 49 ft 18 kts 265°
2026-04-25 14:04 23.59488 58.28092 49 ft 19 kts 265°
2026-04-25 14:04 23.59477 58.27952 49 ft 19 kts 265°
2026-04-25 14:04 23.59465 58.27812 47 ft 19 kts 265°
2026-04-25 14:04 23.59454 58.27672 49 ft 19 kts 265°
2026-04-25 14:05 23.59443 58.27532 49 ft 19 kts 265°
2026-04-25 14:05 23.59431 58.27392 49 ft 19 kts 265°
2026-04-25 14:05 23.59476 58.27271 49 ft 19 kts 322°
2026-04-25 14:05 23.59503 58.27170 49 ft 14 kts 263°
2026-04-25 14:06 23.59493 58.27063 49 ft 14 kts 264°
2026-04-25 14:06 23.59483 58.26956 49 ft 14 kts 264°
2026-04-25 14:06 23.59474 58.26849 49 ft 14 kts 264°
2026-04-25 14:06 23.59467 58.26743 49 ft 14 kts 266°
2026-04-25 14:07 23.59403 58.26679 49 ft 13 kts 184°
2026-04-25 14:07 23.59389 58.26679 49 ft 0 kts 176°
2026-04-25 14:08 23.59367 58.26681 47 ft 9 kts 176°
2026-04-25 14:08 23.59278 58.26687 49 ft 14 kts 176°
2026-04-25 14:08 23.59186 58.26715 49 ft 14 kts 127°
2026-04-25 14:08 23.59178 58.26807 49 ft 9 kts 85°
2026-04-25 14:09 23.59184 58.26892 49 ft 21 kts 85°
2026-04-25 14:09 23.59222 58.27329 48 ft 103 kts 85°
2026-04-25 14:09 23.59314 58.28409 59 ft 179 kts 84°
2026-04-25 14:09 23.59353 58.28872 262 ft 180 kts 84°
2026-04-25 14:10 23.59528 58.31061 1923 ft 179 kts 84°
2026-04-25 14:10 23.59508 58.32416 2465 ft 191 kts 105°
2026-04-25 14:10 23.58743 58.33601 3054 ft 186 kts 147°
2026-04-25 14:10 23.57533 58.34098 3633 ft 195 kts 172°
2026-04-25 14:11 23.56098 58.34028 3796 ft 219 kts 200°
2026-04-25 14:11 23.54898 58.33005 4110 ft 227 kts 234°
2026-04-25 14:11 23.54021 58.31477 4402 ft 248 kts 241°
2026-04-25 14:11 23.53156 58.29754 4712 ft 267 kts 242°
2026-04-25 14:12 23.52259 58.27948 5340 ft 273 kts 242°
2026-04-25 14:12 23.51339 58.26120 6066 ft 277 kts 242°
2026-04-25 14:12 23.50402 58.24279 6775 ft 279 kts 241°
2026-04-25 14:12 23.49444 58.22427 7510 ft 282 kts 241°
2026-04-25 14:13 23.48471 58.20562 8228 ft 284 kts 241°
2026-04-25 14:13 23.47485 58.18688 8940 ft 286 kts 240°
2026-04-25 14:13 23.46485 58.16799 9666 ft 290 kts 240°
2026-04-25 14:13 23.45471 58.14887 10330 ft 294 kts 240°
2026-04-25 14:14 23.44411 58.12896 10568 ft 316 kts 240°
2026-04-25 14:14 23.43270 58.10756 10735 ft 338 kts 240°
2026-04-25 14:14 23.42049 58.08472 10914 ft 360 kts 240°
2026-04-25 14:14 23.40762 58.06070 11321 ft 373 kts 240°
2026-04-25 14:15 23.39440 58.03606 11975 ft 380 kts 240°
2026-04-25 14:15 23.38989 58.02766 12207 ft 382 kts 239°
2026-04-25 14:15 23.36728 57.98560 13288 ft 391 kts 239°
2026-04-25 14:15 23.35349 57.95994 13941 ft 395 kts 239°
2026-04-25 14:16 23.33953 57.93399 14528 ft 398 kts 239°
2026-04-25 14:16 23.32551 57.90790 15125 ft 402 kts 239°
2026-04-25 14:16 23.31130 57.88146 15676 ft 406 kts 239°
2026-04-25 14:16 23.29701 57.85492 16253 ft 409 kts 239°
2026-04-25 14:17 23.28255 57.82813 16791 ft 413 kts 239°
2026-04-25 14:17 23.26798 57.80106 17324 ft 416 kts 239°
2026-04-25 14:17 23.25328 57.77381 17830 ft 420 kts 239°
2026-04-25 14:17 23.23845 57.74629 18304 ft 423 kts 239°
2026-04-25 14:18 23.22354 57.71865 18756 ft 426 kts 239°
2026-04-25 14:18 23.20850 57.69079 19199 ft 428 kts 239°
2026-04-25 14:18 23.19341 57.66291 19681 ft 429 kts 239°
2026-04-25 14:18 23.17824 57.63486 20094 ft 432 kts 239°
2026-04-25 14:19 23.16301 57.60672 20521 ft 433 kts 239°
2026-04-25 14:19 23.14765 57.57836 20890 ft 437 kts 239°
2026-04-25 14:19 23.13220 57.54983 21311 ft 439 kts 239°
2026-04-25 14:19 23.11669 57.52119 21724 ft 442 kts 240°
2026-04-25 14:20 23.10106 57.49233 22109 ft 444 kts 240°
2026-04-25 14:20 23.09575 57.48253 22244 ft 445 kts 240°
2026-04-25 14:20 23.06949 57.43415 22863 ft 449 kts 240°
2026-04-25 14:20 23.05896 57.41474 23127 ft 451 kts 240°
2026-04-25 14:21 23.04302 57.38534 23497 ft 454 kts 240°
2026-04-25 14:21 23.02693 57.35570 23806 ft 456 kts 240°
2026-04-25 14:21 23.01081 57.32604 24125 ft 458 kts 240°
2026-04-25 14:21 22.99495 57.29601 24440 ft 459 kts 243°
2026-04-25 14:22 22.98006 57.26534 24743 ft 461 kts 243°
2026-04-25 14:22 22.96543 57.23438 25055 ft 462 kts 244°
2026-04-25 14:22 22.95082 57.20323 25373 ft 464 kts 244°
2026-04-25 14:22 22.93612 57.17201 25705 ft 465 kts 244°
2026-04-25 14:23 22.92130 57.14072 26013 ft 467 kts 243°
2026-04-25 14:23 22.90638 57.10935 26308 ft 469 kts 243°
2026-04-25 14:23 22.89137 57.07789 26616 ft 471 kts 243°
2026-04-25 14:23 22.87624 57.04624 26904 ft 473 kts 243°
2026-04-25 14:24 22.86107 57.01452 27186 ft 475 kts 243°
2026-04-25 14:24 22.84585 56.98267 27463 ft 477 kts 243°
2026-04-25 14:24 22.83057 56.95074 27763 ft 478 kts 243°
2026-04-25 14:24 22.81543 56.91913 28037 ft 480 kts 243°
2026-04-25 14:25 22.80002 56.88694 28282 ft 482 kts 243°
2026-04-25 14:25 22.78458 56.85468 28512 ft 484 kts 243°
2026-04-25 14:25 22.76904 56.82223 28766 ft 485 kts 243°
2026-04-25 14:25 22.75873 56.80070 28929 ft 486 kts 243°
2026-04-25 14:26 22.73783 56.75710 29261 ft 488 kts 243°
2026-04-25 14:26 22.72217 56.72444 29470 ft 489 kts 243°
2026-04-25 14:26 22.70648 56.69174 29668 ft 491 kts 243°
2026-04-25 14:26 22.69136 56.66024 29858 ft 492 kts 243°
2026-04-25 14:27 22.67557 56.62738 30033 ft 493 kts 243°
2026-04-25 14:27 22.65971 56.59440 30252 ft 493 kts 243°
2026-04-25 14:27 22.64392 56.56159 30513 ft 491 kts 243°
2026-04-25 14:27 22.62814 56.52882 30813 ft 490 kts 243°
2026-04-25 14:28 22.61243 56.49621 31086 ft 488 kts 243°
2026-04-25 14:28 22.59673 56.46365 31348 ft 487 kts 244°
2026-04-25 14:28 22.58111 56.43126 31651 ft 485 kts 244°
2026-04-25 14:28 22.56551 56.39892 31957 ft 483 kts 244°
2026-04-25 14:29 22.54996 56.36674 32264 ft 482 kts 244°
2026-04-25 14:29 22.53442 56.33467 32572 ft 480 kts 244°
2026-04-25 14:29 22.51894 56.30276 32878 ft 478 kts 244°
2026-04-25 14:29 22.50349 56.27096 33205 ft 476 kts 245°
2026-04-25 14:30 22.48812 56.23930 33522 ft 474 kts 245°
2026-04-25 14:30 22.45756 56.17642 34095 ft 471 kts 245°
2026-04-25 14:30 22.44233 56.14508 34303 ft 471 kts 245°
2026-04-25 14:31 22.42705 56.11368 34500 ft 471 kts 246°
2026-04-25 14:31 22.41182 56.08237 34693 ft 471 kts 246°
2026-04-25 14:31 22.39657 56.05106 34925 ft 470 kts 246°
2026-04-25 14:31 22.38136 56.01987 35158 ft 469 kts 246°
2026-04-25 14:32 22.36613 55.98872 35375 ft 469 kts 246°
2026-04-25 14:32 22.35085 55.95761 35569 ft 469 kts 246°
2026-04-25 14:32 22.33557 55.92657 35753 ft 469 kts 247°
2026-04-25 14:32 22.32020 55.89533 35779 ft 472 kts 247°
2026-04-25 14:33 22.28937 55.83266 35839 ft 472 kts 247°
2026-04-25 14:33 22.25866 55.77036 35862 ft 467 kts 247°
2026-04-25 14:34 22.22842 55.70893 35855 ft 464 kts 247°
2026-04-25 14:34 22.19820 55.64754 35841 ft 462 kts 247°
2026-04-25 14:35 22.17100 55.58526 35853 ft 454 kts 258°
2026-04-25 14:35 22.16081 55.51858 35857 ft 451 kts 271°
2026-04-25 14:36 22.16503 55.45106 35860 ft 454 kts 278°
2026-04-25 14:36 22.17138 55.38299 35845 ft 458 kts 278°
2026-04-25 14:37 22.17746 55.31447 35837 ft 457 kts 277°
2026-04-25 14:37 22.18307 55.24688 35829 ft 449 kts 277°
2026-04-25 14:38 22.18849 55.17973 35833 ft 449 kts 277°
2026-04-25 14:38 22.19389 55.11268 35850 ft 449 kts 277°
2026-04-25 14:39 22.19927 55.04553 35850 ft 449 kts 277°
2026-04-25 14:39 22.20463 54.97835 35835 ft 450 kts 277°
2026-04-25 14:40 22.20997 54.91103 35846 ft 451 kts 277°
2026-04-25 14:40 22.21530 54.84355 35831 ft 452 kts 277°
2026-04-25 14:41 22.22059 54.77602 35846 ft 451 kts 277°
2026-04-25 14:41 22.22587 54.70846 35841 ft 452 kts 277°
2026-04-25 14:42 22.23025 54.65214 35838 ft 453 kts 277°
2026-04-25 14:42 22.23637 54.57298 35848 ft 453 kts 277°
2026-04-25 14:43 22.24157 54.50521 35838 ft 453 kts 277°
2026-04-25 14:43 22.24675 54.43739 35849 ft 453 kts 277°
2026-04-25 14:44 22.25191 54.36960 35849 ft 453 kts 277°
2026-04-25 14:44 22.25703 54.30177 35843 ft 453 kts 277°
2026-04-25 14:45 22.26209 54.23442 35843 ft 453 kts 277°
2026-04-25 14:45 22.26716 54.16664 35848 ft 453 kts 277°
2026-04-25 14:46 22.27219 54.09887 35847 ft 453 kts 277°
2026-04-25 14:46 22.27720 54.03111 35845 ft 453 kts 276°
2026-04-25 14:47 22.28137 53.97433 35849 ft 452 kts 276°
2026-04-25 14:47 22.28711 53.89575 35856 ft 452 kts 276°
2026-04-25 14:48 22.29203 53.82821 35857 ft 451 kts 276°
2026-04-25 14:48 22.29689 53.76076 35862 ft 451 kts 276°
2026-04-25 14:49 22.30174 53.69326 35848 ft 451 kts 276°
2026-04-25 14:49 22.30655 53.62584 35858 ft 450 kts 276°
2026-04-25 14:50 22.31133 53.55844 35854 ft 450 kts 276°
2026-04-25 14:50 22.31608 53.49104 35858 ft 449 kts 276°
2026-04-25 14:51 22.32080 53.42383 35857 ft 449 kts 276°
2026-04-25 14:51 22.32549 53.35665 35857 ft 448 kts 276°
2026-04-25 14:52 22.33013 53.28959 35863 ft 448 kts 276°
2026-04-25 14:52 22.33397 53.23390 35860 ft 447 kts 276°
2026-04-25 14:53 22.33933 53.15567 35869 ft 446 kts 276°
2026-04-25 14:53 22.34386 53.08900 35859 ft 446 kts 276°
2026-04-25 14:54 22.34839 53.02214 35863 ft 445 kts 276°
2026-04-25 14:54 22.35287 52.95543 35870 ft 445 kts 276°
2026-04-25 14:55 22.35732 52.88885 35871 ft 444 kts 276°
2026-04-25 14:55 22.36174 52.82235 35871 ft 444 kts 276°
2026-04-25 14:56 22.36612 52.75589 35877 ft 443 kts 276°
2026-04-25 14:56 22.37048 52.68943 35876 ft 443 kts 276°
2026-04-25 14:57 22.37480 52.62301 35875 ft 443 kts 276°
2026-04-25 14:57 22.37910 52.55666 35884 ft 443 kts 276°
2026-04-25 14:58 22.38334 52.49067 35877 ft 442 kts 276°
2026-04-25 14:58 22.38758 52.42439 35886 ft 442 kts 276°
2026-04-25 14:59 22.39179 52.35813 35885 ft 442 kts 276°
2026-04-25 14:59 22.39597 52.29188 35876 ft 442 kts 276°
2026-04-25 15:00 22.40012 52.22567 35887 ft 442 kts 275°
2026-04-25 15:00 22.40425 52.15943 35879 ft 442 kts 275°
2026-04-25 15:01 22.40872 52.09325 35887 ft 441 kts 276°
2026-04-25 15:01 22.41423 52.02719 35895 ft 441 kts 277°
2026-04-25 15:02 22.41985 51.96118 35895 ft 441 kts 277°
2026-04-25 15:02 22.42534 51.89496 35947 ft 443 kts 276°
2026-04-25 15:03 22.42804 51.86182 36188 ft 441 kts 277°
2026-04-25 15:03 22.42981 51.84003 36407 ft 439 kts 277°
2026-04-25 15:03 22.43245 51.80723 36717 ft 436 kts 277°
2026-04-25 15:03 22.43594 51.76377 37077 ft 433 kts 277°
2026-04-25 15:04 22.43766 51.74233 37226 ft 432 kts 277°
2026-04-25 15:04 22.44024 51.71006 37430 ft 431 kts 277°
2026-04-25 15:04 22.44283 51.67772 37626 ft 430 kts 277°
2026-04-25 15:04 22.44539 51.64558 37797 ft 429 kts 277°
2026-04-25 15:05 22.45052 51.58114 37891 ft 431 kts 277°
2026-04-25 15:06 22.45814 51.48459 37893 ft 428 kts 277°
2026-04-25 15:06 22.46315 51.42063 37902 ft 426 kts 277°
2026-04-25 15:07 22.46813 51.35684 37903 ft 424 kts 277°
2026-04-25 15:07 22.47303 51.29374 37906 ft 424 kts 277°
2026-04-25 15:08 22.47794 51.23018 37905 ft 424 kts 277°
2026-04-25 15:08 22.48283 51.16654 37910 ft 425 kts 277°
2026-04-25 15:09 22.48771 51.10276 37910 ft 426 kts 277°
2026-04-25 15:09 22.49499 51.00689 37915 ft 427 kts 277°
2026-04-25 15:10 22.49982 50.94282 37911 ft 427 kts 277°
2026-04-25 15:11 22.50703 50.84661 37912 ft 428 kts 277°
2026-04-25 15:11 22.51181 50.78247 37912 ft 428 kts 277°
2026-04-25 15:12 22.51892 50.68629 37914 ft 428 kts 277°
2026-04-25 15:12 22.52283 50.63304 37915 ft 427 kts 277°
2026-04-25 15:13 22.53060 50.52658 37910 ft 427 kts 277°
2026-04-25 15:14 22.53523 50.46263 37908 ft 426 kts 277°
2026-04-25 15:14 22.53986 50.39831 37913 ft 426 kts 277°
2026-04-25 15:15 22.54441 50.33490 37913 ft 425 kts 277°
2026-04-25 15:15 22.54896 50.27107 37915 ft 425 kts 277°
2026-04-25 15:16 22.55348 50.20726 37912 ft 425 kts 277°
2026-04-25 15:16 22.56021 50.11161 37913 ft 425 kts 276°
2026-04-25 15:17 22.56688 50.01589 37912 ft 425 kts 276°
2026-04-25 15:18 22.57130 49.95209 37912 ft 425 kts 276°
2026-04-25 15:18 22.57788 49.85638 37911 ft 425 kts 276°
2026-04-25 15:19 22.58150 49.80331 37913 ft 425 kts 276°
2026-04-25 15:19 22.58656 49.72876 37909 ft 425 kts 276°
2026-04-25 15:20 22.59087 49.66491 37910 ft 425 kts 276°
2026-04-25 15:20 22.59515 49.60107 37912 ft 425 kts 276°
2026-04-25 15:21 22.59937 49.53768 37912 ft 425 kts 276°
2026-04-25 15:21 22.60360 49.47388 37909 ft 425 kts 276°
2026-04-25 15:22 22.60780 49.41008 37912 ft 425 kts 276°
2026-04-25 15:22 22.61198 49.34632 37912 ft 425 kts 276°
2026-04-25 15:23 22.61613 49.28254 37914 ft 425 kts 276°
2026-04-25 15:23 22.62025 49.21873 37906 ft 425 kts 276°
2026-04-25 15:24 22.62435 49.15501 37908 ft 425 kts 276°
2026-04-25 15:24 22.62776 49.10163 37912 ft 424 kts 276°
2026-04-25 15:25 22.63246 49.02751 37913 ft 424 kts 276°
2026-04-25 15:25 22.63648 48.96383 37914 ft 424 kts 276°
2026-04-25 15:26 22.64047 48.90009 37912 ft 424 kts 276°
2026-04-25 15:26 22.64444 48.83638 37915 ft 424 kts 275°
2026-04-25 15:27 22.64839 48.77262 37912 ft 424 kts 275°
2026-04-25 15:28 22.65425 48.67699 37913 ft 425 kts 275°
2026-04-25 15:28 22.65814 48.61320 37915 ft 425 kts 275°
2026-04-25 15:29 22.66200 48.54936 37913 ft 425 kts 275°
2026-04-25 15:29 22.66583 48.48550 37912 ft 425 kts 275°
2026-04-25 15:30 22.66965 48.42157 37916 ft 425 kts 275°
2026-04-25 15:30 22.67344 48.35764 37915 ft 426 kts 275°
2026-04-25 15:31 22.67721 48.29363 37918 ft 426 kts 275°
2026-04-25 15:31 22.68095 48.22964 37912 ft 426 kts 275°
2026-04-25 15:32 22.68466 48.16566 37912 ft 426 kts 275°
2026-04-25 15:32 22.68833 48.10207 37911 ft 426 kts 275°
2026-04-25 15:33 22.69423 48.00607 37915 ft 426 kts 276°
2026-04-25 15:33 22.69966 47.94222 37914 ft 426 kts 276°
2026-04-25 15:34 22.70523 47.87837 37920 ft 426 kts 276°
2026-04-25 15:34 22.70885 47.83566 37920 ft 426 kts 276°
2026-04-25 15:35 22.71851 47.71878 37921 ft 426 kts 276°
2026-04-25 15:36 22.72633 47.62298 37923 ft 426 kts 276°
2026-04-25 15:36 22.73151 47.55914 37922 ft 426 kts 276°
2026-04-25 15:37 22.73667 47.49528 37930 ft 426 kts 276°
2026-04-25 15:37 22.74181 47.43137 37931 ft 425 kts 276°
2026-04-25 15:38 22.74692 47.36756 37931 ft 425 kts 276°
2026-04-25 15:38 22.75198 47.30381 37930 ft 425 kts 276°
2026-04-25 15:39 22.75700 47.24044 37937 ft 424 kts 276°
2026-04-25 15:39 22.76202 47.17677 37940 ft 424 kts 276°
2026-04-25 15:40 22.76541 47.13417 37942 ft 424 kts 276°
2026-04-25 15:40 22.77220 47.04945 37949 ft 424 kts 276°
2026-04-25 15:41 22.77727 46.98577 37948 ft 424 kts 276°
2026-04-25 15:41 22.78231 46.92214 37944 ft 424 kts 276°
2026-04-25 15:42 22.78731 46.85846 37946 ft 424 kts 276°
2026-04-25 15:42 22.79230 46.79482 37948 ft 424 kts 275°
2026-04-25 15:43 22.79725 46.73122 37946 ft 424 kts 276°
2026-04-25 15:43 22.80218 46.66758 37951 ft 424 kts 275°
2026-04-25 15:44 22.80708 46.60391 37955 ft 424 kts 275°
2026-04-25 15:44 22.81196 46.54025 37957 ft 424 kts 275°
2026-04-25 15:45 22.81682 46.47659 37954 ft 424 kts 275°
2026-04-25 15:45 22.82002 46.43449 37951 ft 423 kts 275°
2026-04-25 15:46 22.82642 46.34940 37946 ft 423 kts 275°
2026-04-25 15:46 22.83111 46.28573 37948 ft 423 kts 275°
2026-04-25 15:47 22.83574 46.22254 37948 ft 423 kts 275°
2026-04-25 15:47 22.84039 46.15893 37933 ft 423 kts 275°
2026-04-25 15:48 22.84501 46.09532 37935 ft 423 kts 275°
2026-04-25 15:48 22.84962 46.03163 37920 ft 423 kts 275°
2026-04-25 15:49 22.85346 45.97832 37919 ft 423 kts 275°
2026-04-25 15:49 22.85798 45.91519 37915 ft 422 kts 275°
2026-04-25 15:50 22.86250 45.85172 37912 ft 422 kts 275°
2026-04-25 15:50 22.86699 45.78823 37912 ft 421 kts 275°
2026-04-25 15:51 22.87070 45.73560 37909 ft 421 kts 275°
2026-04-25 15:51 22.87588 45.66162 37911 ft 421 kts 275°
2026-04-25 15:52 22.88028 45.59839 37909 ft 421 kts 275°
2026-04-25 15:52 22.88465 45.53511 37911 ft 421 kts 275°
2026-04-25 15:53 22.88901 45.47183 37907 ft 421 kts 275°
2026-04-25 15:53 22.89334 45.40850 37912 ft 421 kts 275°
2026-04-25 15:54 22.89764 45.34519 37908 ft 421 kts 275°
2026-04-25 15:54 22.90193 45.28175 37907 ft 422 kts 275°
2026-04-25 15:55 22.90619 45.21830 37911 ft 422 kts 275°
2026-04-25 15:55 22.91043 45.15483 37910 ft 422 kts 275°
2026-04-25 15:56 22.91465 45.09130 37911 ft 422 kts 275°
2026-04-25 15:56 22.91882 45.02824 37910 ft 422 kts 275°
2026-04-25 15:57 22.92300 44.96475 37914 ft 422 kts 275°
2026-04-25 15:57 22.92715 44.90129 37901 ft 422 kts 274°
2026-04-25 15:58 22.93126 44.83788 37908 ft 421 kts 274°
2026-04-25 15:58 22.93537 44.77452 37913 ft 421 kts 274°
2026-04-25 15:59 22.93953 44.71120 37900 ft 420 kts 276°
2026-04-25 15:59 22.94970 44.64883 37912 ft 420 kts 283°
2026-04-25 16:00 22.96090 44.60819 37904 ft 420 kts 287°
2026-04-25 16:00 22.98589 44.52825 37897 ft 420 kts 287°
2026-04-25 16:01 23.00462 44.46823 37891 ft 419 kts 287°
2026-04-25 16:01 23.02316 44.40818 37911 ft 421 kts 287°
2026-04-25 16:02 23.04178 44.34775 37902 ft 424 kts 287°
2026-04-25 16:02 23.06049 44.28689 37906 ft 426 kts 287°
2026-04-25 16:03 23.07927 44.22568 37903 ft 428 kts 287°
2026-04-25 16:03 23.09808 44.16426 37904 ft 429 kts 287°
2026-04-25 16:04 23.11688 44.10280 37860 ft 429 kts 287°
2026-04-25 16:04 23.12622 44.07226 37709 ft 424 kts 287°
2026-04-25 16:04 23.13550 44.04186 37295 ft 424 kts 287°
2026-04-25 16:05 23.14479 44.01135 36682 ft 427 kts 286°
2026-04-25 16:05 23.15404 43.98096 36206 ft 431 kts 287°
2026-04-25 16:05 23.17303 43.91864 36035 ft 435 kts 287°
2026-04-25 16:06 23.18247 43.88763 35852 ft 431 kts 287°
2026-04-25 16:06 23.19190 43.85659 35431 ft 433 kts 287°
2026-04-25 16:06 23.20130 43.82564 35552 ft 430 kts 287°
2026-04-25 16:07 23.22012 43.76354 35613 ft 434 kts 287°
2026-04-25 16:07 23.23912 43.70075 35614 ft 439 kts 286°
2026-04-25 16:08 23.25824 43.63749 35792 ft 439 kts 286°
2026-04-25 16:08 23.27731 43.57436 35910 ft 439 kts 286°
2026-04-25 16:09 23.29619 43.51160 35943 ft 435 kts 286°
2026-04-25 16:09 23.31493 43.44921 35952 ft 432 kts 286°
2026-04-25 16:10 23.33354 43.38711 35956 ft 431 kts 286°
2026-04-25 16:10 23.35208 43.32513 35969 ft 431 kts 286°
2026-04-25 16:11 23.37062 43.26308 35974 ft 431 kts 286°
2026-04-25 16:11 23.38915 43.20096 35977 ft 433 kts 286°
2026-04-25 16:12 23.40777 43.13846 35981 ft 434 kts 286°
2026-04-25 16:12 23.42553 43.07852 35987 ft 436 kts 285°
2026-04-25 16:13 23.44410 43.01557 35988 ft 437 kts 285°
2026-04-25 16:13 23.46260 42.95278 35993 ft 439 kts 285°
2026-04-25 16:14 23.48138 42.88900 35990 ft 439 kts 285°
2026-04-25 16:14 23.50001 42.82559 35998 ft 440 kts 285°
2026-04-25 16:15 23.51852 42.76252 35995 ft 440 kts 285°
2026-04-25 16:15 23.53722 42.69902 35999 ft 440 kts 285°
2026-04-25 16:16 23.55598 42.63557 36004 ft 440 kts 285°
2026-04-25 16:16 23.57469 42.57210 36006 ft 440 kts 285°
2026-04-25 16:17 23.59338 42.50858 36012 ft 440 kts 285°
2026-04-25 16:17 23.61203 42.44505 36017 ft 440 kts 285°
2026-04-25 16:18 23.63067 42.38147 36016 ft 441 kts 285°
2026-04-25 16:18 23.64932 42.31774 36021 ft 441 kts 285°
2026-04-25 16:19 23.66793 42.25384 36022 ft 442 kts 285°
2026-04-25 16:19 23.68635 42.18986 36026 ft 443 kts 285°
2026-04-25 16:20 23.71403 42.09349 36026 ft 444 kts 285°
2026-04-25 16:21 23.74162 41.99734 36019 ft 445 kts 285°
2026-04-25 16:21 23.76026 41.93294 36025 ft 445 kts 285°
2026-04-25 16:22 23.77904 41.86848 36020 ft 446 kts 285°
2026-04-25 16:22 23.79776 41.80397 36012 ft 446 kts 284°
2026-04-25 16:23 23.81640 41.73945 36014 ft 445 kts 284°
2026-04-25 16:23 23.83189 41.68553 36021 ft 445 kts 284°
2026-04-25 16:24 23.85039 41.62101 36009 ft 445 kts 284°
2026-04-25 16:24 23.86890 41.55643 36003 ft 445 kts 284°
2026-04-25 16:25 23.88733 41.49186 36011 ft 445 kts 284°
2026-04-25 16:25 23.90574 41.42724 35997 ft 446 kts 284°
2026-04-25 16:26 23.92416 41.36252 35997 ft 446 kts 284°
2026-04-25 16:26 23.94256 41.29774 35991 ft 447 kts 284°
2026-04-25 16:27 23.96097 41.23273 35991 ft 447 kts 283°
2026-04-25 16:27 23.97936 41.16772 35985 ft 448 kts 283°
2026-04-25 16:28 23.99773 41.10265 35994 ft 448 kts 283°
2026-04-25 16:28 24.01608 41.03751 35982 ft 448 kts 283°
2026-04-25 16:29 24.03428 40.97291 35973 ft 440 kts 283°
2026-04-25 16:29 24.04814 40.90850 35977 ft 431 kts 271°
2026-04-25 16:30 24.04340 40.84387 35984 ft 426 kts 258°
2026-04-25 16:30 24.03044 40.78115 35845 ft 421 kts 256°
2026-04-25 16:30 24.02355 40.75035 35305 ft 416 kts 256°
2026-04-25 16:31 24.01660 40.71945 34305 ft 422 kts 256°
2026-04-25 16:31 24.00995 40.68790 33012 ft 431 kts 260°
2026-04-25 16:31 24.00849 40.65442 31873 ft 452 kts 271°
2026-04-25 16:31 24.01262 40.62008 31384 ft 458 kts 277°
2026-04-25 16:32 24.01993 40.58622 31178 ft 458 kts 283°
2026-04-25 16:32 24.03002 40.55325 30946 ft 455 kts 284°
2026-04-25 16:32 24.03698 40.53124 30443 ft 453 kts 285°
2026-04-25 16:32 24.04733 40.49882 29664 ft 449 kts 285°
2026-04-25 16:33 24.05753 40.46675 28839 ft 444 kts 285°
2026-04-25 16:33 24.06756 40.43491 28087 ft 440 kts 284°
2026-04-25 16:33 24.07740 40.40342 27374 ft 435 kts 284°
2026-04-25 16:33 24.08708 40.37223 26671 ft 431 kts 284°
2026-04-25 16:34 24.09662 40.34137 25982 ft 427 kts 284°
2026-04-25 16:34 24.10609 40.31066 25300 ft 424 kts 284°
2026-04-25 16:34 24.11548 40.28017 24602 ft 422 kts 284°
2026-04-25 16:34 24.12484 40.24975 23919 ft 420 kts 284°
2026-04-25 16:35 24.13401 40.21991 23193 ft 419 kts 284°
2026-04-25 16:35 24.14328 40.18978 22454 ft 416 kts 284°
2026-04-25 16:35 24.15248 40.15986 21766 ft 413 kts 284°
2026-04-25 16:35 24.16159 40.13024 21304 ft 405 kts 284°
2026-04-25 16:36 24.17043 40.10155 21135 ft 391 kts 284°
2026-04-25 16:36 24.17335 40.09205 21068 ft 387 kts 283°
2026-04-25 16:36 24.18726 40.04670 20787 ft 369 kts 283°
2026-04-25 16:36 24.19532 40.02035 20636 ft 360 kts 283°
2026-04-25 16:37 24.20316 39.99469 20486 ft 351 kts 283°
2026-04-25 16:37 24.21082 39.96962 20343 ft 343 kts 283°
2026-04-25 16:37 24.21831 39.94515 20209 ft 335 kts 282°
2026-04-25 16:37 24.22585 39.92142 20062 ft 326 kts 288°
2026-04-25 16:38 24.23859 39.90079 19931 ft 332 kts 308°
2026-04-25 16:38 24.25714 39.88524 19635 ft 343 kts 324°
2026-04-25 16:38 24.28002 39.87622 19358 ft 357 kts 342°
2026-04-25 16:38 24.30423 39.87125 19106 ft 349 kts 343°
2026-04-25 16:39 24.32819 39.86673 18615 ft 353 kts 343°
2026-04-25 16:39 24.35219 39.86214 18115 ft 347 kts 343°
2026-04-25 16:39 24.37557 39.85752 17691 ft 335 kts 342°
2026-04-25 16:39 24.39810 39.85293 17304 ft 324 kts 342°
2026-04-25 16:40 24.42000 39.84836 16989 ft 318 kts 342°
2026-04-25 16:40 24.44154 39.84384 16763 ft 312 kts 342°
2026-04-25 16:40 24.46271 39.83938 16496 ft 308 kts 342°
2026-04-25 16:40 24.48370 39.83487 16192 ft 306 kts 342°
2026-04-25 16:41 24.50451 39.83037 15888 ft 304 kts 342°
2026-04-25 16:41 24.51828 39.82740 15685 ft 302 kts 342°
2026-04-25 16:41 24.56518 39.81733 15214 ft 287 kts 342°
2026-04-25 16:42 24.58477 39.81317 14941 ft 285 kts 342°
2026-04-25 16:42 24.60417 39.80903 14586 ft 287 kts 342°
2026-04-25 16:42 24.62389 39.80483 14201 ft 288 kts 342°
2026-04-25 16:42 24.64345 39.80069 13907 ft 285 kts 342°
2026-04-25 16:43 24.66288 39.79657 13599 ft 282 kts 343°
2026-04-25 16:43 24.68207 39.79251 13271 ft 280 kts 343°
2026-04-25 16:43 24.70111 39.78847 12944 ft 278 kts 343°
2026-04-25 16:43 24.72001 39.78445 12621 ft 275 kts 343°
2026-04-25 16:44 24.73873 39.78047 12325 ft 272 kts 344°
2026-04-25 16:44 24.75723 39.77655 12029 ft 270 kts 344°
2026-04-25 16:44 24.77556 39.77266 11724 ft 267 kts 344°
2026-04-25 16:44 24.79378 39.76877 11443 ft 266 kts 344°
2026-04-25 16:45 24.81192 39.76489 11136 ft 265 kts 345°
2026-04-25 16:45 24.82998 39.76106 10834 ft 263 kts 345°
2026-04-25 16:45 24.84794 39.75725 10514 ft 263 kts 345°
2026-04-25 16:45 24.86587 39.75344 10240 ft 262 kts 346°
2026-04-25 16:46 24.88374 39.74964 9944 ft 262 kts 346°
2026-04-25 16:46 24.90137 39.74526 9587 ft 255 kts 332°
2026-04-25 16:46 24.91492 39.73421 9312 ft 236 kts 300°
2026-04-25 16:46 24.91999 39.72398 9155 ft 226 kts 284°
2026-04-25 16:47 24.92318 39.70204 8829 ft 210 kts 261°
2026-04-25 16:47 24.92070 39.68651 8577 ft 203 kts 255°
2026-04-25 16:47 24.91765 39.67162 8339 ft 196 kts 255°
2026-04-25 16:47 24.91464 39.65731 8114 ft 192 kts 252°
2026-04-25 16:48 24.90762 39.64535 7862 ft 184 kts 214°
2026-04-25 16:48 24.89524 39.64163 7675 ft 190 kts 181°
2026-04-25 16:48 24.88204 39.64260 7441 ft 190 kts 181°
2026-04-25 16:48 24.86927 39.64323 7248 ft 183 kts 179°
2026-04-25 16:49 24.85686 39.64454 6997 ft 173 kts 176°
2026-04-25 16:49 24.84550 39.64639 6832 ft 163 kts 174°
2026-04-25 16:49 24.83437 39.64846 6635 ft 162 kts 173°
2026-04-25 16:49 24.82334 39.65062 6409 ft 160 kts 173°
2026-04-25 16:50 24.81247 39.65291 6317 ft 160 kts 172°
2026-04-25 16:50 24.80150 39.65545 6158 ft 164 kts 171°
2026-04-25 16:50 24.79039 39.65785 5923 ft 160 kts 172°
2026-04-25 16:50 24.77933 39.65980 5725 ft 162 kts 172°
2026-04-25 16:51 24.76817 39.66204 5576 ft 163 kts 172°
2026-04-25 16:51 24.75712 39.66451 5466 ft 162 kts 170°
2026-04-25 16:51 24.74604 39.66706 5419 ft 162 kts 169°
2026-04-25 16:51 24.73871 39.66902 5367 ft 165 kts 169°
2026-04-25 16:52 24.72364 39.67226 5007 ft 161 kts 173°
2026-04-25 16:52 24.71272 39.67436 4737 ft 159 kts 172°
2026-04-25 16:52 24.70185 39.67655 4485 ft 160 kts 172°
2026-04-25 16:52 24.69080 39.67884 4363 ft 164 kts 172°
2026-04-25 16:53 24.66854 39.68382 4000 ft 162 kts 170°
2026-04-25 16:53 24.65747 39.68613 3678 ft 163 kts 173°
2026-04-25 16:53 24.64636 39.68838 3494 ft 161 kts 171°
2026-04-25 16:54 24.63541 39.69078 3326 ft 161 kts 172°
2026-04-25 16:54 24.62453 39.69308 3098 ft 158 kts 171°
2026-04-25 16:54 24.61373 39.69533 2906 ft 160 kts 171°
2026-04-25 16:54 24.60281 39.69772 2726 ft 163 kts 172°
2026-04-25 16:55 24.59165 39.70005 2524 ft 159 kts 171°
2026-04-25 16:55 24.58127 39.70234 2269 ft 150 kts 172°
2026-04-25 16:55 24.57142 39.70441 2115 ft 136 kts 172°
2026-04-25 16:55 24.56336 39.70608 2118 ft 97 kts 170°
2026-04-25 16:56 24.55822 39.70722 2115 ft 53 kts 169°
2026-04-25 16:56 24.55571 39.70766 2113 ft 31 kts 170°
2026-04-25 16:56 24.55366 39.70813 2114 ft 28 kts 169°
2026-04-25 16:56 24.55207 39.70850 2114 ft 20 kts 166°
2026-04-25 16:57 24.55068 39.70887 2116 ft 20 kts 165°
2026-04-25 16:57 24.55022 39.70902 2117 ft 20 kts 161°
2026-04-25 16:57 24.54906 39.70974 2116 ft 2 kts 145°